• In Hungary
  • List of Countries
  • For 7 days
  • Water Temperature
  • Satellite Maps
  • Weather Map
  • News
  • Weather Widgets
  • user-avatar
    Login

    Hourly Weather Concord

    Today, 22 February, Thursday

    Time Temperature Precipitation Wind Pressure Humidity
    00:00 +3°C° 0 mm 3 mps 765 mmHg 75%
    01:00 +2°C° 0 mm 3 mps 765 mmHg 76%
    02:00 +1°C° 0 mm 3 mps 766 mmHg 76%
    03:00 +1°C° 0 mm 2 mps 767 mmHg 77%
    04:00 +1°C° 0 mm 2 mps 767 mmHg 78%
    05:00 +1°C° 0 mm 2 mps 768 mmHg 76%
    06:00 +1°C° 0 mm 2 mps 768 mmHg 75%
    07:00 +2°C° 0 mm 1 mps 769 mmHg 74%
    08:00 +2°C° 0 mm 1 mps 769 mmHg 70%
    09:00 +3°C° 0 mm 1 mps 769 mmHg 67%
    10:00 +3°C° 0 mm 1 mps 769 mmHg 63%
    11:00 +3°C° 0 mm 1 mps 769 mmHg 63%
    12:00 +3°C° 0 mm 1 mps 769 mmHg 63%
    13:00 +3°C° 0 mm 1 mps 769 mmHg 64%
    14:00 +2°C° 0.6 mm 1 mps 769 mmHg 71%
    15:00 +2°C° 0.6 mm 1 mps 769 mmHg 78%
    16:00 +1°C° 0.6 mm 1 mps 769 mmHg 85%
    17:00 0°C° 0 mm 1 mps 769 mmHg 87%
    18:00 -1°C° 0 mm 0 mps 769 mmHg 89%
    19:00 -2°C° 0 mm 0 mps 769 mmHg 91%
    20:00 -2°C° 0 mm 0 mps 769 mmHg 90%
    21:00 -3°C° 0 mm 0 mps 769 mmHg 90%
    22:00 -3°C° 0 mm 0 mps 770 mmHg 89%
    23:00 -3°C° 0 mm 0 mps 769 mmHg 88%

    Tomorrow, 23 February, Friday

    Time Temperature Precipitation Wind Pressure Humidity
    00:00 -3°C° 0 mm 0 mps 769 mmHg 86%
    01:00 -3°C° 0 mm 0 mps 769 mmHg 85%
    02:00 -4°C° 0 mm 0 mps 769 mmHg 84%
    03:00 -4°C° 0 mm 0 mps 769 mmHg 83%
    04:00 -4°C° 0 mm 0 mps 769 mmHg 83%
    05:00 -4°C° 0 mm 0 mps 769 mmHg 83%
    06:00 -4°C° 0 mm 0 mps 769 mmHg 83%
    07:00 -3°C° 0 mm 0 mps 769 mmHg 84%
    08:00 0°C° 0 mm 1 mps 769 mmHg 79%
    09:00 +1°C° 0 mm 1 mps 768 mmHg 75%
    10:00 +2°C° 0 mm 2 mps 768 mmHg 70%
    11:00 +3°C° 0 mm 2 mps 767 mmHg 69%
    12:00 +3°C° 0 mm 3 mps 766 mmHg 69%
    13:00 +3°C° 0 mm 3 mps 765 mmHg 68%
    14:00 +3°C° 0.1 mm 3 mps 764 mmHg 71%
    15:00 +2°C° 0.1 mm 3 mps 763 mmHg 74%
    16:00 +2°C° 0.1 mm 3 mps 762 mmHg 77%
    17:00 +2°C° 0.1 mm 3 mps 761 mmHg 82%
    18:00 +1°C° 0.1 mm 3 mps 760 mmHg 86%
    19:00 +1°C° 0.1 mm 3 mps 759 mmHg 91%
    20:00 +1°C° 0.1 mm 3 mps 758 mmHg 92%
    21:00 +1°C° 0.1 mm 3 mps 757 mmHg 93%
    22:00 +2°C° 0.1 mm 3 mps 756 mmHg 94%
    23:00 +3°C° 0 mm 2 mps 755 mmHg 94%

    Day after tomorrow, 24 February, Saturday

    Time Temperature Precipitation Wind Pressure Humidity
    00:00 +4°C° 0 mm 2 mps 754 mmHg 95%
    01:00 +4°C° 0 mm 2 mps 753 mmHg 95%
    02:00 +5°C° 0 mm 2 mps 753 mmHg 94%
    03:00 +4°C° 0 mm 3 mps 753 mmHg 94%
    04:00 +5°C° 0 mm 3 mps 752 mmHg 93%
    05:00 +6°C° 0 mm 2 mps 753 mmHg 93%
    06:00 +5°C° 0 mm 2 mps 753 mmHg 93%
    07:00 +5°C° 0 mm 2 mps 754 mmHg 93%
    08:00 +5°C° 0 mm 3 mps 754 mmHg 86%
    09:00 +8°C° 0 mm 3 mps 754 mmHg 79%
    10:00 +8°C° 0 mm 4 mps 755 mmHg 72%
    11:00 +8°C° 0 mm 4 mps 755 mmHg 69%
    12:00 +10°C° 0 mm 4 mps 755 mmHg 66%
    13:00 +10°C° 0 mm 4 mps 755 mmHg 63%
    14:00 +10°C° 0 mm 3 mps 755 mmHg 65%
    15:00 +10°C° 0 mm 2 mps 755 mmHg 67%
    16:00 +9°C° 0 mm 2 mps 755 mmHg 68%
    17:00 +8°C° 0 mm 2 mps 756 mmHg 74%
    18:00 +7°C° 0 mm 1 mps 757 mmHg 80%
    19:00 +5°C° 0 mm 1 mps 757 mmHg 86%
    20:00 +5°C° 0 mm 1 mps 758 mmHg 86%
    21:00 +4°C° 0 mm 1 mps 758 mmHg 86%
    22:00 +4°C° 0 mm 1 mps 758 mmHg 87%
    23:00 +3°C° 0 mm 1 mps 758 mmHg 87%

    25 February, Sunday

    Time Temperature Precipitation Wind Pressure Humidity
    00:00 +3°C° 0 mm 1 mps 759 mmHg 87%
    01:00 +3°C° 0 mm 1 mps 759 mmHg 88%
    02:00 +2°C° 0 mm 2 mps 758 mmHg 87%
    03:00 +1°C° 0 mm 2 mps 758 mmHg 87%
    04:00 0°C° 0 mm 3 mps 758 mmHg 86%
    05:00 0°C° 0.1 mm 3 mps 758 mmHg 84%
    06:00 -1°C° 0.1 mm 4 mps 758 mmHg 82%
    07:00 -1°C° 0.1 mm 5 mps 758 mmHg 80%
    08:00 0°C° 1.1 mm 5 mps 757 mmHg 83%
    09:00 0°C° 1.1 mm 5 mps 757 mmHg 86%
    10:00 0°C° 1.1 mm 5 mps 756 mmHg 89%
    11:00 +1°C° 1.5 mm 5 mps 755 mmHg 90%
    12:00 +1°C° 1.5 mm 5 mps 754 mmHg 90%
    13:00 +1°C° 1.5 mm 5 mps 753 mmHg 91%
    14:00 +1°C° 0.8 mm 5 mps 753 mmHg 93%
    15:00 +1°C° 0.8 mm 5 mps 752 mmHg 94%
    16:00 +1°C° 0.8 mm 5 mps 751 mmHg 96%
    17:00 +3°C° 0.2 mm 4 mps 751 mmHg 96%
    18:00 +3°C° 0.2 mm 3 mps 751 mmHg 97%
    19:00 +4°C° 0.2 mm 2 mps 750 mmHg 98%
    20:00 +4°C° 0.1 mm 2 mps 750 mmHg 98%
    21:00 +5°C° 0.1 mm 1 mps 750 mmHg 98%
    22:00 +4°C° 0.1 mm 0 mps 750 mmHg 98%
    23:00 +4°C° 0 mm 0 mps 750 mmHg 98%

    26 February, Monday

    Time Temperature Precipitation Wind Pressure Humidity
    00:00 +5°C° 0 mm 1 mps 750 mmHg 98%
    01:00 +5°C° 0 mm 1 mps 750 mmHg 98%
    02:00 +4°C° 0 mm 1 mps 750 mmHg 97%
    03:00 +4°C° 0 mm 1 mps 750 mmHg 95%
    04:00 +2°C° 0 mm 2 mps 751 mmHg 94%
    05:00 +2°C° 0 mm 2 mps 751 mmHg 92%
    06:00 +1°C° 0 mm 2 mps 751 mmHg 89%
    07:00 -1°C° 0 mm 2 mps 752 mmHg 87%
    08:00 +2°C° 0 mm 2 mps 752 mmHg 80%
    09:00 +3°C° 0 mm 3 mps 752 mmHg 73%
    10:00 +5°C° 0 mm 3 mps 752 mmHg 67%
    11:00 +6°C° 0 mm 4 mps 752 mmHg 63%
    12:00 +7°C° 0 mm 4 mps 751 mmHg 60%
    13:00 +7°C° 0 mm 5 mps 751 mmHg 57%
    14:00 +7°C° 0 mm 5 mps 751 mmHg 59%
    15:00 +7°C° 0 mm 4 mps 751 mmHg 61%
    16:00 +7°C° 0 mm 4 mps 751 mmHg 63%
    17:00 +5°C° 0 mm 4 mps 751 mmHg 67%
    18:00 +3°C° 0 mm 3 mps 752 mmHg 70%
    19:00 +2°C° 0 mm 3 mps 753 mmHg 74%
    20:00 +1°C° 0 mm 3 mps 753 mmHg 74%
    21:00 -1°C° 0 mm 4 mps 753 mmHg 74%
    22:00 -2°C° 0 mm 4 mps 754 mmHg 74%
    23:00 -1°C° 0 mm 3 mps 754 mmHg 76%

    27 February, Tuesday

    Time Temperature Precipitation Wind Pressure Humidity
    00:00 -1°C° 0 mm 3 mps 754 mmHg 78%
    01:00 -2°C° 0 mm 3 mps 755 mmHg 81%
    02:00 -2°C° 0 mm 3 mps 755 mmHg 80%
    03:00 -2°C° 0 mm 3 mps 755 mmHg 80%
    04:00 -2°C° 0 mm 3 mps 756 mmHg 79%
    05:00 -2°C° 0 mm 3 mps 756 mmHg 79%
    06:00 -2°C° 0 mm 3 mps 756 mmHg 79%
    07:00 -2°C° 0 mm 3 mps 757 mmHg 78%
    08:00 -2°C° 0 mm 4 mps 757 mmHg 71%
    09:00 0°C° 0 mm 5 mps 757 mmHg 65%
    10:00 +1°C° 0 mm 5 mps 757 mmHg 58%
    11:00 +2°C° 0 mm 5 mps 757 mmHg 56%
    12:00 +2°C° 0 mm 5 mps 757 mmHg 54%
    13:00 +3°C° 0 mm 6 mps 757 mmHg 52%
    14:00 +3°C° 0 mm 5 mps 757 mmHg 53%
    15:00 +3°C° 0 mm 5 mps 757 mmHg 53%
    16:00 +3°C° 0 mm 5 mps 757 mmHg 54%
    17:00 +1°C° 0 mm 4 mps 757 mmHg 61%
    18:00 0°C° 0 mm 3 mps 757 mmHg 67%
    19:00 -1°C° 0 mm 2 mps 758 mmHg 74%
    20:00 -2°C° 0 mm 2 mps 758 mmHg 76%
    21:00 0°C° 0 mm 1 mps 758 mmHg 78%
    22:00 0°C° 0 mm 1 mps 758 mmHg 80%
    23:00 -1°C° 0 mm 1 mps 758 mmHg 79%
    Show more